This is the latest recevied weather packets stored in our database for station/object KE2HEH. If no packets are shown the sender has not sent any weather packets the latest 10 day(s).
| Time | Temp. | Humidity | Pressure | Rain* | Wind** | Luminosity | Snow |
|---|---|---|---|---|---|---|---|
| 1778164809 | 12.78° C | 74% | 1012 hPa | 0 mm | - | 363 W/m² | - |
| 1778164505 | 12.78° C | 76% | 1011.8 hPa | 0 mm | - | 209 W/m² | - |
| 1778164203 | 12.78° C | 77% | 1011.8 hPa | 0 mm | - | 440 W/m² | - |
| 1778163898 | 12.78° C | 77% | 1011.6 hPa | 0 mm | - | 342 W/m² | - |
| 1778163595 | 12.78° C | 78% | 1011.7 hPa | 0 mm | - | 257 W/m² | - |
| 1778163291 | 12.78° C | 79% | 1011.4 hPa | 0 mm | - | 289 W/m² | - |
| 1778162988 | 12.78° C | 78% | 1011.6 hPa | 0 mm | - | 301 W/m² | - |
| 1778162684 | 12.78° C | 79% | 1011.7 hPa | 0 mm | - | 689 W/m² | - |
| 1778162382 | 12.78° C | 78% | 1011.5 hPa | 0 mm | - | 310 W/m² | - |
| 1778162079 | 12.78° C | 77% | 1011.5 hPa | 0 mm | - | 367 W/m² | - |
| 1778161776 | 12.78° C | 78% | 1011.4 hPa | 0 mm | - | 381 W/m² | - |
| 1778161473 | 12.78° C | 78% | 1011.3 hPa | 0 mm | - | 354 W/m² | - |
| 1778161169 | 12.78° C | 79% | 1011.6 hPa | 0 mm | - | 319 W/m² | - |
| 1778160865 | 12.22° C | 80% | 1011.6 hPa | 0 mm | - | 372 W/m² | - |
| 1778160564 | 12.22° C | 81% | 1011.6 hPa | 0 mm | - | 407 W/m² | - |
| 1778160259 | 11.67° C | 82% | 1011.4 hPa | 0 mm | - | 669 W/m² | - |
| 1778159956 | 11.67° C | 82% | 1011.3 hPa | 0 mm | - | 272 W/m² | - |
| 1778159653 | 11.67° C | 83% | 1011.9 hPa | 0 mm | - | 293 W/m² | - |
| 1778159350 | 11.67° C | 83% | 1011.8 hPa | 0 mm | - | 299 W/m² | - |
| 1778159047 | 11.67° C | 84% | 1011.9 hPa | 0 mm | - | 268 W/m² | - |
| 1778158746 | 11.11° C | 84% | 1011.8 hPa | 0 mm | - | 253 W/m² | - |
| 1778158443 | 11.11° C | 85% | 1012.1 hPa | 0 mm | - | 175 W/m² | - |
| 1778158140 | 11.11° C | 85% | 1012.1 hPa | 0 mm | - | 117 W/m² | - |
| 1778157836 | 11.11° C | 85% | 1011.7 hPa | 0 mm | - | 101 W/m² | - |
| 1778157535 | 11.11° C | 86% | 1011.7 hPa | 0 mm | - | 80 W/m² | - |
* Rain latest hour (hover to see other rain measurements)
** Current wind speed in m/s (hover to see current wind gust speed)